| time (UTC) | temp F | wind direction | speed knots | gust knots | rain 1hr in | rain 24hr in | rain mn in | humidity % | barometer mb |
| 20260509093045 | 43 | 167 | 7.0 | 10.4 | 0.00 | 0.03 | 0.00 | 76 | 1007.9 |
| 20260509091545 | 44 | 148 | 7.0 | 10.4 | 0.00 | 0.03 | 0.00 | 75 | 1008.1 |
| 20260509090053 | 44 | 154 | 7.0 | 11.3 | 0.00 | 0.03 | 0.00 | 74 | 1008.0 |
| 20260509084547 | 44 | 163 | 7.0 | 12.2 | 0.00 | 0.03 | 0.00 | 73 | 1008.2 |
| 20260509083046 | 44 | 161 | 6.1 | 10.4 | 0.00 | 0.03 | 0.00 | 74 | 1008.5 |
| 20260509081547 | 44 | 158 | 6.1 | 9.6 | 0.00 | 0.03 | 0.00 | 73 | 1008.6 |
| 20260509080044 | 43 | 143 | 6.1 | 9.6 | 0.00 | 0.03 | 0.00 | 74 | 1008.6 |
| 20260509074546 | 43 | 165 | 6.1 | 11.3 | 0.00 | 0.03 | 0.00 | 74 | 1008.8 |
| 20260509073054 | 43 | 166 | 6.1 | 9.6 | 0.00 | 0.03 | 0.00 | 74 | 1008.9 |
| 20260509071554 | 43 | 182 | 5.2 | 8.7 | 0.00 | 0.03 | 0.00 | 74 | 1009.0 |
| 20260509070048 | 43 | 175 | 6.1 | 10.4 | 0.00 | 0.03 | 0.00 | 74 | 1009.2 |
| 20260509064557 | 43 | 184 | 6.1 | 9.6 | 0.00 | 0.03 | 0.00 | 74 | 1009.1 |
| 20260509063046 | 43 | 173 | 7.0 | 10.4 | 0.00 | 0.03 | 0.00 | 74 | 1009.3 |
| 20260509061541 | 43 | 187 | 6.1 | 8.7 | 0.00 | 0.03 | 0.00 | 75 | 1009.4 |
| 20260509060047 | 43 | 172 | 5.2 | 8.7 | 0.00 | 0.03 | 0.00 | 76 | 1009.8 |
| 20260509054557 | 42 | 175 | 5.2 | 7.8 | 0.00 | 0.04 | 0.00 | 76 | 1010.0 |
| 20260509053048 | 42 | 175 | 6.1 | 8.7 | 0.00 | 0.04 | 0.00 | 76 | 1010.0 |
| 20260509051543 | 42 | 172 | 5.2 | 7.8 | 0.00 | 0.04 | 0.00 | 77 | 1010.2 |
| 20260509050046 | 42 | 171 | 5.2 | 7.8 | 0.00 | 0.04 | 0.00 | 75 | 1010.2 |
| 20260509044540 | 42 | 173 | 5.2 | 7.0 | 0.00 | 0.06 | 0.00 | 76 | 1010.4 |
| 20260509043045 | 43 | 173 | 4.3 | 7.0 | 0.00 | 0.06 | 0.00 | 74 | 1010.5 |
| 20260509041614 | 43 | 169 | 3.5 | 6.1 | 0.00 | 0.06 | 0.00 | 74 | 1010.7 |
| 20260509040050 | 43 | 162 | 4.3 | 7.0 | 0.00 | 0.06 | 0.00 | 74 | 1010.7 |
| 20260509034543 | 42 | 168 | 3.5 | 5.2 | 0.00 | 0.06 | 0.06 | 75 | 1010.8 |
| 20260509033040 | 42 | 167 | 3.5 | 6.1 | 0.00 | 0.06 | 0.06 | 77 | 1010.7 |
| 20260509031547 | 41 | 140 | 1.7 | 4.3 | 0.00 | 0.06 | 0.06 | 80 | 1010.8 |
| 20260509030046 | 40 | 140 | 2.6 | 3.5 | 0.00 | 0.06 | 0.06 | 82 | 1010.9 |
| 20260509024541 | 41 | 140 | 1.7 | 3.5 | 0.00 | 0.06 | 0.06 | 84 | 1010.9 |
| 20260509023051 | 41 | 140 | 1.7 | 3.5 | 0.00 | 0.06 | 0.06 | 83 | 1010.9 |
| 20260509021546 | 42 | 140 | 1.7 | 3.5 | 0.00 | 0.06 | 0.06 | 80 | 1010.9 |
| 20260509020053 | 43 | 140 | 1.7 | 2.6 | 0.00 | 0.06 | 0.06 | 78 | 1011.0 |
| 20260509014544 | 43 | 140 | 1.7 | 3.5 | 0.00 | 0.06 | 0.06 | 76 | 1011.0 |
| 20260509013054 | 44 | 140 | 2.6 | 4.3 | 0.00 | 0.06 | 0.06 | 72 | 1010.9 |
| 20260509011542 | 45 | 140 | 2.6 | 4.3 | 0.00 | 0.06 | 0.06 | 73 | 1010.8 |
| 20260509010051 | 46 | 140 | 2.6 | 4.3 | 0.00 | 0.06 | 0.06 | 73 | 1010.5 |
| 20260509004545 | 46 | 140 | 1.7 | 3.5 | 0.00 | 0.06 | 0.06 | 71 | 1010.4 |
| 20260509003046 | 47 | 140 | 2.6 | 4.3 | 0.00 | 0.06 | 0.06 | 70 | 1010.4 |
| 20260509001543 | 48 | 102 | 1.7 | 3.5 | 0.00 | 0.06 | 0.06 | 70 | 1010.4 |
| 20260509000044 | 49 | 102 | 1.7 | 3.5 | 0.00 | 0.06 | 0.06 | 70 | 1010.3 |
| 20260508234545 | 49 | 360 | 0.9 | 3.5 | 0.00 | 0.06 | 0.06 | 72 | 1010.3 |
| 20260508233046 | 49 | 360 | 1.7 | 4.3 | 0.00 | 0.06 | 0.06 | 72 | 1010.1 |
| 20260508231542 | 48 | 360 | 2.6 | 4.3 | 0.00 | 0.06 | 0.06 | 72 | 1010.2 |
| 20260508230049 | 47 | 360 | 2.6 | 7.8 | 0.00 | 0.06 | 0.06 | 74 | 1010.3 |
| 20260508224546 | 48 | 103 | 2.6 | 6.1 | 0.00 | 0.06 | 0.06 | 76 | 1010.2 |
| 20260508223046 | 48 | 85 | 3.5 | 6.1 | 0.00 | 0.06 | 0.06 | 77 | 1010.2 |
| 20260508221545 | 48 | 82 | 3.5 | 6.1 | 0.00 | 0.06 | 0.06 | 77 | 1010.5 |
| 20260508220049 | 49 | 79 | 2.6 | 5.2 | 0.00 | 0.06 | 0.06 | 74 | 1010.6 |
| 20260508214544 | 50 | 96 | 4.3 | 7.0 | 0.00 | 0.06 | 0.06 | 68 | 1010.5 |
| 20260508213043 | 49 | 88 | 2.6 | 5.2 | 0.00 | 0.06 | 0.06 | 75 | 1010.5 |
| 20260508211546 | 48 | 99 | 2.6 | 7.8 | 0.00 | 0.06 | 0.06 | 76 | 1010.5 |
| 20260508210045 | 46 | 127 | 5.2 | 8.7 | 0.00 | 0.06 | 0.06 | 78 | 1010.7 |
| 20260508204548 | 46 | 86 | 5.2 | 7.8 | 0.00 | 0.06 | 0.06 | 81 | 1010.9 |
| 20260508203045 | 46 | 80 | 5.2 | 7.8 | 0.00 | 0.06 | 0.06 | 80 | 1011.1 |
| 20260508201546 | 46 | 97 | 2.6 | 7.8 | 0.00 | 0.06 | 0.06 | 81 | 1011.2 |
| 20260508200105 | 45 | 84 | 5.2 | 7.8 | 0.00 | 0.06 | 0.06 | 80 | 1011.2 |
| 20260508194545 | 45 | 89 | 6.1 | 7.8 | 0.00 | 0.06 | 0.06 | 80 | 1011.3 |
| 20260508193100 | 45 | 84 | 5.2 | 7.8 | 0.00 | 0.06 | 0.06 | 81 | 1011.6 |
| 20260508191546 | 45 | 88 | 4.3 | 7.0 | 0.00 | 0.06 | 0.06 | 81 | 1011.8 |
| 20260508190052 | 45 | 45 | 3.5 | 7.0 | 0.00 | 0.06 | 0.06 | 83 | 1011.7 |
| 20260508184545 | 44 | 47 | 4.3 | 7.8 | 0.00 | 0.06 | 0.06 | 85 | 1011.7 |
| 20260508183106 | 44 | 27 | 7.0 | 9.6 | 0.00 | 0.06 | 0.06 | 83 | 1011.7 |
| 20260508181600 | 45 | 24 | 7.0 | 8.7 | 0.00 | 0.06 | 0.06 | 83 | 1011.9 |
| 20260508180045 | 45 | 360 | 6.1 | 8.7 | 0.00 | 0.06 | 0.06 | 83 | 1011.9 |
| 20260508174551 | 45 | 19 | 7.0 | 8.7 | 0.00 | 0.06 | 0.06 | 83 | 1011.9 |
| 20260508173046 | 45 | 360 | 4.3 | 7.0 | 0.00 | 0.06 | 0.06 | 84 | 1012.1 |
| 20260508171547 | 45 | 360 | 3.5 | 7.8 | 0.00 | 0.06 | 0.06 | 83 | 1012.2 |
| 20260508170052 | 46 | 351 | 6.1 | 7.8 | 0.00 | 0.06 | 0.06 | 83 | 1012.3 |
| 20260508164547 | 46 | 327 | 4.3 | 7.8 | 0.00 | 0.06 | 0.06 | 83 | 1012.5 |
| 20260508163039 | 46 | 333 | 6.1 | 8.7 | 0.00 | 0.06 | 0.06 | 84 | 1012.7 |
| 20260508161547 | 46 | 340 | 6.1 | 9.6 | 0.00 | 0.06 | 0.06 | 83 | 1012.8 |
| 20260508160045 | 46 | 336 | 7.8 | 9.6 | 0.00 | 0.06 | 0.06 | 83 | 1012.8 |
| 20260508154605 | 45 | 332 | 9.6 | 12.2 | 0.00 | 0.06 | 0.06 | 83 | 1012.8 |
| 20260508153047 | 45 | 337 | 8.7 | 11.3 | 0.00 | 0.06 | 0.06 | 83 | 1012.7 |
| 20260508151548 | 46 | 325 | 7.8 | 9.6 | 0.00 | 0.06 | 0.06 | 81 | 1012.7 |
| 20260508150050 | 47 | 328 | 5.2 | 8.7 | 0.00 | 0.06 | 0.06 | 79 | 1012.5 |
| 20260508144557 | 46 | 265 | 4.3 | 7.8 | 0.00 | 0.06 | 0.06 | 79 | 1012.5 |
| 20260508143045 | 45 | 281 | 4.3 | 7.0 | 0.00 | 0.06 | 0.06 | 80 | 1012.4 |
| 20260508141541 | 45 | 277 | 5.2 | 8.7 | 0.01 | 0.06 | 0.06 | 83 | 1012.5 |
| 20260508140046 | 44 | 308 | 5.2 | 11.3 | 0.01 | 0.06 | 0.06 | 85 | 1012.5 |
| 20260508134558 | 44 | 265 | 5.2 | 9.6 | 0.03 | 0.06 | 0.06 | 88 | 1012.5 |
| 20260508133051 | 43 | 204 | 1.7 | 5.2 | 0.03 | 0.06 | 0.06 | 90 | 1012.5 |
| 20260508131547 | 42 | 221 | 2.6 | 8.7 | 0.02 | 0.05 | 0.05 | 87 | 1012.3 |
| 20260508130043 | 43 | 360 | 4.3 | 7.8 | 0.02 | 0.05 | 0.05 | 90 | 1012.5 |
| 20260508124545 | 43 | 360 | 2.6 | 5.2 | 0.00 | 0.03 | 0.03 | 89 | 1012.4 |
| 20260508123050 | 43 | 258 | 2.6 | 5.2 | 0.00 | 0.03 | 0.03 | 90 | 1012.2 |
| 20260508121547 | 43 | 360 | 2.6 | 6.1 | 0.00 | 0.03 | 0.03 | 90 | 1012.1 |
| 20260508120046 | 42 | 236 | 2.6 | 5.2 | 0.00 | 0.03 | 0.03 | 91 | 1012.0 |
| 20260508114545 | 42 | 202 | 1.7 | 5.2 | 0.00 | 0.03 | 0.03 | 91 | 1011.6 |
| 20260508113045 | 41 | 202 | 0.9 | 3.5 | 0.00 | 0.03 | 0.03 | 91 | 1011.4 |
| 20260508111546 | 41 | 202 | 2.6 | 3.5 | 0.00 | 0.03 | 0.03 | 92 | 1011.5 |
| 20260508110044 | 40 | 202 | 1.7 | 4.3 | 0.00 | 0.03 | 0.03 | 92 | 1011.2 |
| 20260508104545 | 40 | 202 | 1.7 | 3.5 | 0.00 | 0.03 | 0.03 | 92 | 1011.2 |
| 20260508103045 | 40 | 360 | 2.6 | 5.2 | 0.00 | 0.03 | 0.03 | 92 | 1011.4 |
| 20260508101541 | 40 | 213 | 3.5 | 5.2 | 0.00 | 0.03 | 0.03 | 92 | 1011.5 |
| 20260508100056 | 40 | 213 | 3.5 | 7.0 | 0.00 | 0.03 | 0.03 | 92 | 1011.6 |
| 20260508094549 | 40 | 209 | 4.3 | 7.8 | 0.00 | 0.03 | 0.03 | 92 | 1011.6 |